262 
ASUS46 KSEW 260910
RWRWA 

WASHINGTON REGIONAL WEATHER ROUNDUP
NATIONAL WEATHER SERVICE SEATTLE WA
200 AM PDT FRI AUG 26 2016

NOTE:"FAIR" INDICATES FEW OR NO CLOUDS BELOW 12,000 FEET WITH NO 
SIGNIFICANT WEATHER AND/OR OBSTRUCTIONS TO VISIBILITY.

WAZ505-507>509-261000-
SEATTLE, TACOMA, EVERETT, AND VICINITY
  
CITY           SKY/WX    TMP DP  RH WIND       PRES   REMARKS
EVERETT        FAIR      67  50  54 N3        29.97F                  
BOEING FIELD   FAIR      69  54  58 CALM      29.95F                  
RENTON         FAIR      66  55  67 SE3       29.94F                  
SEATAC AIRPORT FAIR      70  52  52 SE3       29.97S                  
JBLM-MCCHORD   FAIR      59  52  78 SE2       29.95F                  
PUYALLUP       FAIR      59  54  82 CALM      29.97S                  
BREMERTON      FAIR      55  46  71 CALM      30.00F                  
JBLM-FT LEWIS  FAIR      65  49  57 SE3       29.95S                  
TACOMA NARROWS FAIR      69  48  47 CALM      29.96S                  
$$
 
WAZ001-503-506-510-514-515-261000-
NORTH INTERIOR
  
CITY           SKY/WX    TMP DP  RH WIND       PRES   REMARKS
BELLINGHAM     FAIR      61  54  77 CALM      29.95F                  
FRIDAY HARBOR  FAIR      59  49  69 CALM      29.96F                  
EASTSOUND      FAIR      59  52  77 CALM      29.94S                  
PORT ANGELES   FAIR      60  49  66 CALM      29.97F                  
EDIZ HOOK      FAIR      58  51  78 W12       29.96S                  
PORT TOWNSEND  FAIR      55  52  88 CALM      29.96S                  
NAS WHIDBEY    FAIR      62  49  62 SW3       29.99F                  
ARLINGTON      FAIR      57  46  67 N3        29.97F                  
BURLINGTON     CLEAR     61  54  77 CALM      29.96S                  
$$
 
WAZ020-022-039-040-504-511-512-261000-
SOUTHWEST INTERIOR
  
CITY           SKY/WX    TMP DP  RH WIND       PRES   REMARKS
SHELTON        FAIR      59  48  67 CALM      29.94F                  
OLYMPIA        FAIR      59  49  69 CALM      29.95F                  
CHEHALIS       NOT AVBL                                               
KELSO          FAIR      63  53  70 CALM      29.94S                  
VANCOUVER      FAIR      63  51  65 CALM      29.91S                  
SCAPPOOSE, OR  FAIR      66  49  54 NW3       29.91S                  
PORTLAND, OR   FAIR      69  58  67 E5        29.92S                  
$$
 
WAZ021-516-517-261000-
WASHINGTON COAST
  
CITY           SKY/WX    TMP DP  RH WIND       PRES   REMARKS
FORKS          FAIR      58  53  84 CALM      29.96F                  
HOQUIAM        FAIR      58  57  97 CALM      29.95F                  
ASTORIA, OR    FAIR      58  52  80 CALM      29.93S                  
$$
 
WAZ019-023-024-040-518-519-261000-
CASCADE MOUNTAINS AND COLUMBIA GORGE
  
CITY           SKY/WX    TMP DP  RH WIND       PRES   REMARKS
STAMPEDE PASS  FAIR      60  44  55 CALM      30.13F                  
TROUTDALE, OR  FAIR      65  52  62 CALM      29.91F                  
THE DALLES, OR FAIR      63  41  44 E6        29.94F                  
$$

WAZ026-027-041>044-520-521-261000-
EAST SLOPES
  
CITY           SKY/WX    TMP DP  RH WIND       PRES   REMARKS
OMAK           FAIR      65  41  41 CALM      30.00F                  
WENATCHEE      CLOUDY    71  45  39 W10       29.98F                  
ELLENSBURG     MOCLDY    61  44  53 CALM      30.02S                  
YAKIMA           N/A     61  43  51 W8        29.99S                  
$$

WAZ028-034-035-261000-
COLUMBIA BASIN
  
CITY           SKY/WX    TMP DP  RH WIND       PRES   REMARKS
EPHRATA        FAIR      72  40  31 NW9       29.96F                  
MOSES LAKE     FAIR      63  43  48 MISG      29.97F                  
PASCO          FAIR      58  49  72 CALM      29.95S                  
HERMISTON, OR  FAIR      58  37  45 S5        29.94S                  
$$

WAZ036>038-261000-
NORTHEAST WASHINGTON
  
CITY           SKY/WX    TMP DP  RH WIND       PRES   REMARKS
SPOKANE GEIGER CLOUDY    67  39  35 NE5       30.03S                  
SPOKANE FELTS  FAIR      62  43  49 CALM      30.03S                  
FAIRCHILD AFB  MOCLDY    61  36  39 CALM      30.02F                  
COEURDALENE,ID FAIR      63  43  48 N10       30.02F                  
DEER PARK      CLOUDY    60  39  45 N8        30.03S                  
$$

WAZ029>033-261000-
SOUTHEAST WASHINGTON
  
CITY           SKY/WX    TMP DP  RH WIND       PRES   REMARKS
PULLMAN        FAIR      52  33  48 CALM      30.04F                  
LEWISTON, ID   FAIR      64  33  31 SE3       29.98S                  
WALLA WALLA    FAIR      62  35  36 E3        29.96S                  
PENDLETON, OR  FAIR      59  36  42 SE12      29.97F                  
$$